Regional Weather Roundup
Issued by NWS

Home | Current Version | Previous Version | Graphics & Text | Print | Product List | Glossary On
Versions: 1 2 3 4 5 6 7 8 9 10 11 12 13 14 15 16 17 18 19 20 21 22 23 24 25 26 27 28 29 30 31 32 33 34 35 36 37 38 39 40 41 42 43 44 45 46 47 48 49 50
000
ASUS43 KOAX 270410
RWRNE

WEATHER ROUNDUP FOR NEBRASKA
NATIONAL WEATHER SERVICE OMAHA NE
1100 PM CDT TUE JUL 26 2016

NOTES: SATELLITE DATA IS BEING USED TO AUGMENT CLOUD COVER ABOVE
       12000 FEET.
       "FAIR" INDICATES FEW OR NO CLOUDS BELOW 12,000 FEET WITH NO
       SIGNIFICANT WEATHER AND/OR OBSTRUCTIONS TO VISIBILITY.

  * THESE STATIONS DO NOT REPORT WEATHER SUCH AS RAIN...SNOW OR FOG.

NEZ001>004-019>022-054>056-270500-
NEBRASKA PANHANDLE

CITY           SKY/WX    TMP DP  RH WIND       PRES   REMARKS
SCOTTSBLUFF    PTCLDY    72  56  57 NE14      30.07F
ALLIANCE       LGT RAIN  68  58  70 VRB3      30.07R
CHADRON        CLOUDY    68  59  73 N7        30.05R
SIDNEY         CLEAR     69  46  43 W12       30.08F
$$

NEZ057>060-069>072-079>082-270500-
SOUTHWEST NEBRASKA

CITY           SKY/WX    TMP DP  RH WIND       PRES   REMARKS
NORTH PLATTE   CLOUDY    76  65  68 SE10      30.03R
IMPERIAL       CLEAR     75  62  64 S6        30.03R
LEXINGTON      PTCLDY    76  66  71 SE14      30.04R
MCCOOK         CLOUDY    80  63  55 S10G22    30.00R
OGALLALA       CLOUDY    75  66  74 CALM      30.03R
$$

NEZ005>010-023>029-035>040-094-270500-
NORTH CENTRAL NEBRASKA

CITY           SKY/WX    TMP DP  RH WIND       PRES   REMARKS
VALENTINE      LGT RAIN  63  32  31 MISG      30.09R
AINSWORTH      TSTM      61  61 100 E13       30.11S
BROKEN BOW     CLOUDY    73  66  78 SE10      30.03R
O`NEILL        CLOUDY    77  64  64 E9        30.03S
ORD            PTCLDY    75  65  70 SE9       30.01R
THEDFORD       CLOUDY    75  63  66 N35G49    30.18R
$$

NEZ041-046>049-061>064-073>077-083>087-270500-
SOUTH CENTRAL NEBRASKA

CITY           SKY/WX    TMP DP  RH WIND       PRES   REMARKS
GRAND ISLAND   PTCLDY    73  68  84 SE3       30.06R
AURORA         PTCLDY    71  68  91 SE5       30.05R
HASTINGS       MOCLDY    76  64  66 S5        30.06R
HEBRON         CLEAR     73  67  79 S3        30.02R
HOLDREGE       CLOUDY    73  65  75 SE6       30.05R
KEARNEY *      MOCLDY    73  64  73 SE7       30.07R
YORK           PTCLDY    73  64  73 SE9       30.04R
$$

NEZ011>018-030>034-042>045-270500-
NORTHEAST NEBRASKA

CITY           SKY/WX    TMP DP  RH WIND       PRES   REMARKS
NORFOLK        PTCLDY    72  64  76 SE6       30.03R
ALBION         PTCLDY    71  65  82 SE5       30.05S
BLAIR          PTCLDY    75  66  74 CALM      30.03S
FREMONT        CLEAR     74  65  75 CALM      30.03F
TEKAMAH        CLEAR     71  66  84 S5        30.01S
WAYNE          PTCLDY    71  67  88 S8        30.02F
$$

NEZ050>053-065>068-078-088>093-270500-
SOUTHEAST NEBRASKA

CITY           SKY/WX    TMP DP  RH WIND       PRES   REMARKS
LINCOLN        PTCLDY    77  64  64 SE8       30.03R
OMAHA EPPLEY   PTCLDY    77  68  73 SE6       30.02R
BEATRICE       CLEAR     73  66  78 E5        30.01S
FALLS CITY     CLEAR     73  69  87 CALM      29.99S
NEBRASKA CITY  CLEAR     73  66  80 CALM      30.02F
PLATTSMOUTH    PTCLDY    73  68  84 CALM      30.03S
$$

NEZ044-045-051>053-067-270500-
OMAHA AREA

CITY           SKY/WX    TMP DP  RH WIND       PRES   REMARKS
OMAHA EPPLEY   PTCLDY    77  68  73 SE6       30.02R
BLAIR          PTCLDY    75  66  74 CALM      30.03S
FREMONT        CLEAR     74  65  75 CALM      30.03F
MILLARD        PTCLDY    73  69  86 CALM      30.03S
OFFUTT AFB     PTCLDY    69  68  96 E2        30.02R
PLATTSMOUTH    PTCLDY    73  68  84 CALM      30.03S
WAHOO          FAIR      71  66  87 CALM      30.03R
$$



USA.gov is the U.S. government's official web portal to all federal, state and local government web resources and services.